Retour au catalogue

ARIANE 5 R/B

ActifSSO
NORAD 36125·ROCKET BODY·🇫🇷 France

Lancé Dec 17, 2009 depuis Guiana Space Centre

Loading…

Prochains Passages (prochaines 24 heures)

TLE

PériméSource: Mike McCants

Époque: Aug 31, 2026, 22:08 UTC

1 36125U 09073B   26243.92283215 0.00000400  00000-0  52813-4 0    05
2 36125  98.0198 339.1810 0023072 295.6535  64.3464 14.79920846    05

Suivez ARIANE 5 R/B en temps réel avec AllMySat

Download on the App Store